x

9444090 - Port Angeles, Wa (ptaw1) Weather Station

11:30 - Fri 29th May 2015 All times are PDT. -7 hours from GMT.

  • Wind
    8mph, 13mph gusts
  • Sea Temp 53°f
  • Ar Temp 52°f
  • Sea Pressure 1013.3mb
  • 9444090 - Port Angeles, Wa
  • 9444090 - Port Angeles, Wa

More Historic Weather Station data

Upgrade to MSW Pro to gain access to the past 30 days of data for over 8000 Wavebouys and Weather Stations around the globe.

Join Pro

Comparision Forecast

View Surf forecast
   
Sex 05/29 11:30 8 13 mph 1013.3mb 53f 52f
11:24 6 9 mph 1013.4mb 53f 52f
11:18 6 10 mph 1013.4mb 53f 52f
11:12 6 11 mph 1013.4mb 53f 53f
11:06 8 14 mph 1013.4mb 53f 53f
11:00 8 14 mph 1013.4mb 53f 53f
10:36 11 16 mph 1013.4mb 53f 53f
10:30 11 15 mph 1013.4mb 53f 53f
10:24 11 15 mph 1013.4mb 53f 53f
10:18 10 16 mph 1013.4mb 53f 53f
10:12 9 14 mph 1013.4mb 52f 53f
10:06 13 16 mph 1013.4mb 52f 53f
10:00 13 17 mph 1013.3mb 52f 53f
9:36 13 17 mph 1013.3mb 52f 54f
9:30 10 15 mph 1013.2mb 52f 53f
9:24 11 16 mph 1013.2mb 52f 54f
9:18 10 15 mph 1013.2mb 52f 54f
9:12 9 13 mph 1013.2mb 52f 54f
9:06 7 11 mph 1013.1mb 52f 54f
9:00 10 15 mph 1013mb 53f 55f
8:36 13 16 mph 1012.9mb 53f 55f
8:30 14 17 mph 1012.9mb 53f 55f
8:24 14 18 mph 1013mb 53f 56f
8:18 13 15 mph 1013mb 53f 55f
8:12 13 18 mph 1013mb 53f 56f
8:06 10 14 mph 1013mb 53f 56f
8:00 9 17 mph 1013mb 53f 56f
7:36 14 17 mph 1012.9mb 53f 57f
7:30 13 20 mph 1012.9mb 53f 57f
7:24 14 20 mph 1012.9mb 53f 57f
7:18 16 18 mph 1012.9mb 53f 56f
7:12 15 18 mph 1013mb 53f 57f
7:06 14 18 mph 1012.9mb 53f 56f
7:00 17 21 mph 1012.9mb 53f 56f
6:36 18 22 mph 1012.8mb 53f 57f
6:30 16 21 mph 1012.8mb 53f 58f
6:24 15 22 mph 1012.8mb 53f 58f
6:18 20 21 mph 1012.8mb 53f 58f
6:12 16 20 mph 1012.9mb 53f 58f
6:06 17 21 mph 1012.9mb 53f 58f
6:00 18 21 mph 1013mb 53f 56f
5:36 15 18 mph 1013.2mb 53f 56f
5:30 14 20 mph 1013.3mb 53f 56f
5:24 17 22 mph 1013.3mb 53f 56f
5:18 17 23 mph 1013.3mb 53f 56f
5:12 17 21 mph 1013.3mb 53f 57f
5:06 15 21 mph 1013.3mb 53f 57f
5:00 16 21 mph 1013.3mb 53f 57f
4:36 18 23 mph 1013.4mb 53f 57f
4:30 18 22 mph 1013.5mb 53f 58f
4:24 20 22 mph 1013.5mb 53f 57f
4:18 20 21 mph 1013.6mb 53f 57f
4:12 18 22 mph 1013.6mb 53f 58f
4:06 20 22 mph 1013.6mb 53f 57f
4:00 20 22 mph 1013.7mb 53f 56f
3:36 18 22 mph 1013.8mb 53f 57f
3:30 18 22 mph 1013.7mb 53f 57f
3:24 20 22 mph 1013.8mb 53f 57f
3:18 20 21 mph 1013.8mb 53f 57f
3:12 17 20 mph 1013.9mb 53f 57f
3:06 17 20 mph 1014mb 53f 56f
3:00 18 20 mph 1014.1mb 53f 56f
2:36  -  mph 1014.2mb - -
12:36  -  mph - - 51f
12:30  -  mph - - 51f
12:24  -  mph - - 51f
12:18  -  mph - - 51f
12:12  -  mph - - 50f
12:06  -  mph - - 50f
12:00  -  mph - - 50f
11:36 18 22 mph 1015.7mb 53f 50f
11:30 17 21 mph 1015.7mb 53f 50f
11:24 16 20 mph 1015.7mb 53f 50f
11:18 18 21 mph 1015.7mb 53f 50f
11:12 17 20 mph 1015.7mb 53f 50f
11:06 17 20 mph 1015.7mb 53f 50f
11:00 17 20 mph 1015.7mb 53f 50f
10:36 16 18 mph 1015.8mb 53f 50f
10:30 14 16 mph 1015.8mb 53f 50f
10:24 13 15 mph 1015.8mb 53f 50f
10:18 13 16 mph 1015.8mb 53f 50f
10:12 11 15 mph 1015.8mb 53f 50f
10:06 13 16 mph 1015.8mb 53f 50f
10:00 14 15 mph 1015.8mb 53f 50f
9:36 13 15 mph 1015.9mb 53f 50f
9:30 13 15 mph 1015.9mb 53f 50f
9:24 15 16 mph 1015.9mb 53f 50f
9:18 14 16 mph 1015.8mb 53f 50f
9:12 15 17 mph 1015.8mb 53f 49f
9:06 15 18 mph 1015.9mb 53f 49f
9:00 15 17 mph 1015.9mb 53f 50f
8:36 11 14 mph 1015.7mb 53f 50f
8:30 11 14 mph 1015.7mb 53f 50f
8:24 13 14 mph 1015.7mb 53f 50f
8:18 13 14 mph 1015.8mb 53f 50f
8:12 10 13 mph 1015.8mb 53f 50f
8:06 3 7 mph 1015.8mb 53f 50f
8:00 6 7 mph 1015.8mb 53f 50f
7:36 7 8 mph 1015.9mb 53f 50f
7:30 5 7 mph 1015.9mb 53f 50f
7:24 3 7 mph 1015.9mb 53f 50f
7:18 5 7 mph 1016mb 53f 50f
7:12 3 6 mph 1015.9mb 53f 50f
7:06 3 5 mph 1016mb 53f 50f
7:00 2 5 mph 1016mb 53f 50f
6:36 6 7 mph 1015.9mb 53f 49f
6:30 5 7 mph 1015.9mb 53f 50f
6:24 6 7 mph 1016mb 53f 49f
6:18 5 6 mph 1016mb 53f 50f
6:12 3 5 mph 1016mb 53f 49f
6:06 5 8 mph 1016mb 53f 49f
6:00 5 6 mph 1016mb 53f 50f
5:36 7 8 mph 1015.9mb 53f 50f
5:30 6 8 mph 1016mb 53f 50f
5:24 8 10 mph 1015.9mb 53f 50f
5:18 7 9 mph 1015.9mb 53f 50f
5:12 8 10 mph 1015.8mb 53f 50f
5:06 8 9 mph 1015.8mb 53f 50f
5:00 8 9 mph 1015.9mb 53f 50f
4:36 6 9 mph 1015.9mb 53f 50f
4:30 10 11 mph 1015.9mb 53f 50f
4:24 8 10 mph 1015.9mb 53f 51f
4:18 7 9 mph 1015.9mb 53f 50f
4:12 6 7 mph 1015.8mb 53f 50f
4:06 5 6 mph 1015.8mb 53f 51f
4:00 3 5 mph 1015.7mb 53f 51f
3:36 6 9 mph 1015.7mb 53f 50f
3:30 7 8 mph 1015.7mb 53f 51f
3:24 6 8 mph 1015.7mb 53f 51f
3:18 3 6 mph 1015.6mb 53f 51f
3:12 5 6 mph 1015.7mb 53f 51f
3:06 5 7 mph 1015.7mb 53f 51f
3:00 6 7 mph 1015.7mb 53f 51f
2:36 7 9 mph 1015.6mb 53f 51f
2:30 7 10 mph 1015.6mb 53f 51f
2:24 9 13 mph 1015.6mb 53f 51f
2:18 11 13 mph 1015.5mb 53f 51f
2:12 9 10 mph 1015.6mb 53f 51f
2:06 9 10 mph 1015.6mb 53f 51f
2:00 8 9 mph 1015.6mb 52f 51f
1:36 8 11 mph 1015.6mb 52f 51f
1:30 10 13 mph 1015.6mb 52f 51f
1:24 10 11 mph 1015.7mb 53f 51f
1:18 10 11 mph 1015.7mb 53f 51f
1:12 10 13 mph 1015.7mb 53f 51f
1:06 8 10 mph 1015.7mb 53f 51f
1:00 10 13 mph 1015.7mb 53f 51f
12:36 10 11 mph 1015.8mb 53f 52f
12:30 9 10 mph 1015.8mb 53f 52f
12:24 10 13 mph 1015.9mb 53f 51f
12:18 10 14 mph 1015.9mb 53f 51f
12:12 13 14 mph 1015.9mb 53f 51f
12:06 11 13 mph 1015.9mb 53f 51f
12:00 11 14 mph 1016mb 53f 51f
Qui 05/28 11:54 13 14 mph 1016mb 53f 51f
11:48 13 14 mph 1016mb 53f 52f
11:36 14 16 mph 1016mb 53f 51f
11:30 14 16 mph 1016mb 53f 51f
11:24 14 16 mph 1016mb 53f 52f
11:18 11 15 mph 1016mb 53f 52f
11:12 11 14 mph 1016mb 54f 52f
11:06 7 10 mph 1016.1mb 54f 52f
11:00 8 10 mph 1016.1mb 54f 52f
10:54 6 8 mph 1016.2mb 54f 52f
10:48 7 10 mph 1016.1mb 54f 52f
10:36 13 16 mph 1016.1mb 54f 52f
10:30 15 17 mph 1016.2mb 54f 52f
10:24 14 16 mph 1016.2mb 54f 52f
10:18 10 14 mph 1016.2mb 54f 52f
10:12 8 10 mph 1016.4mb 54f 52f
10:06 7 10 mph 1016.3mb 54f 52f
10:00 10 13 mph 1016.4mb 54f 52f
9:54 9 11 mph 1016.4mb 54f 52f
9:48 8 10 mph 1016.4mb 54f 52f
9:36 8 9 mph 1016.2mb 53f 52f
9:30 8 15 mph 1016.3mb 54f 52f
9:24 14 16 mph 1016.1mb 54f 52f
9:18 10 13 mph 1016.2mb 54f 52f
9:12 8 11 mph 1016.1mb 54f 53f
9:06 8 10 mph 1016.1mb 54f 53f
9:00 9 11 mph 1016mb 54f 53f
8:54 7 10 mph 1016mb 54f 53f
8:48 9 11 mph 1015.9mb 54f 53f
8:36 9 13 mph 1016mb 54f 53f
8:30 8 13 mph 1016.1mb 54f 53f
8:24 10 13 mph 1016.1mb 54f 53f
8:18 8 10 mph 1016mb 54f 53f
8:12 9 13 mph 1016.1mb 54f 53f
8:06 11 14 mph 1016.1mb 54f 53f
8:00 9 11 mph 1016.1mb 54f 53f
7:54 10 13 mph 1016.1mb 54f 54f
7:48 8 11 mph 1016.2mb 54f 54f
7:36 9 13 mph 1016.2mb 54f 54f
7:30 11 15 mph 1016.3mb 54f 53f
7:24 13 16 mph 1016.3mb 54f 54f
7:18 14 15 mph 1016.2mb 54f 54f
7:12 14 16 mph 1016.2mb 54f 54f
7:06 14 16 mph 1016.3mb 54f 54f
7:00 15 18 mph 1016.4mb 54f 54f
6:54 17 20 mph 1016.3mb 54f 54f
6:48 15 17 mph 1016.3mb 54f 54f
6:36 16 17 mph 1016.3mb 54f 54f
6:30 18 21 mph 1016.4mb 54f 53f
6:24 17 20 mph 1016.5mb 54f 53f
6:18 16 18 mph 1016.5mb 54f 54f
6:12 15 17 mph 1016.6mb 54f 54f
6:06 15 17 mph 1016.7mb 54f 54f
6:00 17 20 mph 1016.7mb 54f 53f
5:54 17 22 mph 1016.8mb 54f 53f
5:48 17 21 mph 1016.8mb 54f 53f
5:36 17 21 mph 1017mb 54f 53f
5:30 18 20 mph 1017.1mb 54f 53f
5:24 16 18 mph 1017.1mb 54f 53f
5:18 14 16 mph 1017.3mb 54f 53f
5:12 16 20 mph 1017.2mb 54f 53f
5:06 16 20 mph 1017.2mb 54f 54f
5:00 15 22 mph 1017.2mb 54f 53f
4:54 17 21 mph 1017.2mb 54f 53f
4:48 20 22 mph 1017.2mb 54f 53f
4:36 18 21 mph 1017.2mb 53f 53f
4:30 18 21 mph 1017.1mb 53f 53f
4:24 18 21 mph 1017.2mb 53f 53f
4:18 18 20 mph 1017.2mb 53f 54f
4:12 17 20 mph 1017.2mb 53f 54f
4:06 16 18 mph 1017.3mb 53f 54f
4:00 17 18 mph 1017.3mb 53f 54f
3:54 14 16 mph 1017.4mb 53f 54f
3:48 15 17 mph 1017.4mb 53f 54f
3:36 16 17 mph 1017.5mb 53f 54f
3:30 15 17 mph 1017.5mb 53f 53f
3:24 15 17 mph 1017.6mb 53f 53f
3:18 15 18 mph 1017.6mb 53f 53f
3:12 16 18 mph 1017.6mb 53f 53f
3:06 15 17 mph 1017.7mb 53f 53f
3:00 15 17 mph 1017.7mb 53f 53f
2:54 16 18 mph 1017.7mb 53f 53f
2:48 16 18 mph 1017.8mb 53f 53f
2:36 17 18 mph 1017.9mb 53f 53f
2:30 15 18 mph 1017.9mb 53f 53f
2:24 16 18 mph 1017.9mb 54f 53f
2:18 17 18 mph 1018mb 54f 52f
2:12 17 20 mph 1018.1mb 54f 51f
2:06 17 20 mph 1018.2mb 54f 51f
2:00 17 20 mph 1018.2mb 54f 51f
1:54 17 21 mph 1018.3mb 53f 51f
1:48 18 20 mph 1018.4mb 53f 51f
1:36 17 21 mph 1018.4mb 53f 51f
1:30 18 21 mph 1018.4mb 53f 51f
1:24 18 20 mph 1018.5mb 53f 51f
1:18 15 18 mph 1018.5mb 53f 51f
1:12 15 17 mph 1018.5mb 53f 52f
1:06 15 16 mph 1018.5mb 53f 51f
1:00 14 16 mph 1018.6mb 53f 51f
12:54 15 17 mph 1018.6mb 53f 51f
12:48 16 17 mph 1018.7mb 53f 51f
12:36 16 18 mph 1018.7mb 53f 51f
12:30 14 17 mph 1018.8mb 53f 51f
12:24 16 17 mph 1018.8mb 53f 51f
12:18 14 17 mph 1018.9mb 53f 51f
12:12 15 17 mph 1018.9mb 53f 51f
12:06 14 15 mph 1018.9mb 52f 51f
12:00 14 16 mph 1018.9mb 52f 51f
11:54 14 15 mph 1019mb 52f 51f
11:48 11 14 mph 1019mb 52f 51f
11:36 13 14 mph 1019mb 52f 50f
11:30 13 14 mph 1019.1mb 52f 50f
11:24 11 15 mph 1019.1mb 52f 50f
11:18 10 14 mph 1019mb 53f 50f
11:12 6 10 mph 1019mb 53f 50f
11:06 7 9 mph 1019mb 53f 50f
11:00 7 10 mph 1019mb 53f 50f
10:54 9 13 mph 1019mb 53f 50f
10:48 8 11 mph 1018.9mb 53f 50f
10:36 6 9 mph 1018.8mb 53f 49f
10:30 6 8 mph 1018.8mb 53f 50f
10:24 7 10 mph 1018.9mb 52f 50f
10:18 7 9 mph 1018.9mb 52f 49f
10:12 6 10 mph 1018.9mb 52f 50f
10:06 8 10 mph 1019mb 52f 50f
10:00 9 10 mph 1019.1mb 52f 50f
9:54 6 8 mph 1019.1mb 52f 50f
9:48 5 8 mph 1019mb 52f 50f
9:36 6 7 mph 1019mb 52f 50f
9:30 6
mph
1019.1mb 52f 50f
9:24 3 6 mph 1019mb 52f 50f
9:18 5 7 mph 1019.1mb 52f 50f
9:12 5 9 mph 1019.1mb 52f 50f
9:06 6 10 mph 1019.1mb 52f 50f
9:00 9 10 mph 1019.2mb 52f 50f
8:54 7 9 mph 1019.1mb 52f 50f
8:48 6 8 mph 1019.1mb 52f 50f
8:36 6 8 mph 1019.1mb 53f 50f
8:30 7 10 mph 1019.1mb 53f 50f
8:24 9 11 mph 1019.1mb 53f 50f
8:18 9 10 mph 1019.1mb 53f 50f
8:12 8 10 mph 1019.1mb 53f 50f
8:06 5 7 mph 1019.1mb 53f 50f
8:00 5 7 mph 1019.1mb 53f 50f
7:54 5 7 mph 1019mb 53f 50f
7:48 5 6 mph 1019mb 53f 50f
7:36 6 9 mph 1018.9mb 52f 50f
7:30 8 10 mph 1019mb 52f 50f
7:24 9 10 mph 1018.9mb 52f 49f
7:18 8 9 mph 1018.8mb 52f 50f
7:12 6 8 mph 1018.8mb 52f 49f
7:06 6 7 mph 1018.8mb 52f 49f
7:00 5 6 mph 1018.8mb 52f 49f
6:54 3 6 mph 1018.8mb 52f 49f
6:48 3 6 mph 1018.8mb 52f 49f
6:36 2 5 mph 1018.8mb 52f 49f
6:30 5 6 mph 1018.8mb 52f 49f
6:24 5 6 mph 1018.7mb 52f 49f
6:18 2 3 mph 1018.8mb 52f 49f
6:12 2 5 mph 1018.8mb 52f 49f
6:06 2 5 mph 1018.7mb 52f 50f
6:00 2 3 mph 1018.7mb 52f 49f
5:54 1 3 mph 1018.6mb 52f 49f
5:48  -  2 mph 1018.5mb 52f 49f
5:36  -  1 mph 1018.5mb 52f 49f
5:30  -  2 mph 1018.4mb 52f 49f
5:24 1 3 mph 1018.3mb 52f 49f
5:18 2 5 mph 1018.2mb 52f 49f
5:12 3 5 mph 1018.2mb 52f 49f
5:06 2 5 mph 1018.2mb 52f 49f
5:00 3 8 mph 1018.1mb 52f 49f
4:54 6 8 mph 1018.1mb 52f 49f
4:48 7 8 mph 1018.1mb 52f 50f
4:36 2 6 mph 1018.1mb 52f 50f
4:30 6 7 mph 1018.1mb 52f 50f
4:24 5 7 mph 1018.1mb 52f 50f
4:18 5 7 mph 1018mb 52f 50f
4:12 2 5 mph 1018.1mb 52f 50f
4:06 3 5 mph 1018.1mb 52f 50f
4:00 6 7 mph 1018.1mb 52f 50f
3:54 6 8 mph 1018mb 52f 50f
3:48 6 8 mph 1018mb 52f 50f
3:36 7 9 mph 1018mb 52f -
3:30 6 8 mph 1018mb 52f -
3:24 5 6 mph 1018.1mb 52f -
3:18 3 6 mph 1018.2mb 52f -
3:12 6 7 mph 1018.2mb 52f -
3:06 5 8 mph 1018.2mb 52f -
3:00 5 8 mph 1018.1mb 52f -
2:54 7 10 mph 1018.1mb 52f -
2:48 9 11 mph 1018mb 52f -
2:36 6 7 mph 1018mb 52f 50f
2:30 2 5 mph 1017.9mb 52f 50f
2:24 3 5 mph 1017.9mb 52f 50f
2:18 3 6 mph 1017.9mb 52f 50f
2:12 5 8 mph 1018mb 52f 50f
2:06 7 9 mph 1017.9mb 52f 50f
2:00 3 6 mph 1017.9mb 52f 50f
1:54 7 9 mph 1017.8mb 52f 50f
1:48 6 7 mph 1017.8mb 52f 50f
1:36 8 9 mph 1017.8mb 52f 50f
1:30 6 7 mph 1017.8mb 52f 50f
1:24 3 6 mph 1017.9mb 52f 50f
1:18 3 6 mph 1017.9mb 52f 50f
1:12 6 7 mph 1017.9mb 52f 50f
1:06 6 8 mph 1017.9mb 52f 50f
1:00 7 8 mph 1017.8mb 52f 50f
12:54 6 7 mph 1017.8mb 52f 50f
12:48 6 7 mph 1017.7mb 52f 50f
12:36 5 6 mph 1017.6mb 52f 51f
12:30 2 5 mph 1017.6mb 52f 51f
12:24 5 7 mph 1017.6mb 52f 51f
12:18 5 8 mph 1017.5mb 52f 51f
12:12 6 8 mph 1017.4mb 52f 51f
12:06 7 9 mph 1017.4mb 52f 51f
12:00 7 10 mph 1017.4mb 52f 51f
Qua 05/27 11:54 9 14 mph 1017.4mb 52f 51f
11:48 8 11 mph 1017.4mb 52f 51f
11:36 10 11 mph 1017.3mb 52f 51f
11:30 9 11 mph 1017.2mb 52f 51f
11:24 11 13 mph 1017.3mb 52f 51f
11:18 10 11 mph 1017.2mb 52f 51f
11:12 8 9 mph 1017.3mb 52f 51f
11:06 8 9 mph 1017.4mb 52f 51f
11:00 7 9 mph 1017.4mb 52f 51f
10:54 8 9 mph 1017.4mb 52f 51f
10:48 9 10 mph 1017.4mb 52f 51f
10:36 8
mph
1017.5mb 52f 51f
10:30 6 7 mph 1017.4mb 52f 51f
10:24 7 8 mph 1017.4mb 53f 51f
10:18 6 8 mph 1017.4mb 53f 51f
10:12 8 10 mph 1017.5mb 53f 51f
10:06 9 11 mph 1017.5mb 53f 51f
10:00 10 14 mph 1017.5mb 53f 51f
9:54 11 13 mph 1017.5mb 53f 51f
9:48 11 13 mph 1017.5mb 53f 51f
9:36 10 11 mph 1017.5mb 53f 51f
9:30 10 11 mph 1017.5mb 53f 51f
9:24 9 13 mph 1017.5mb 53f 51f
9:18 11 14 mph 1017.4mb 53f 51f
9:12 13 14 mph 1017.3mb 53f 52f
9:06 10 11 mph 1017.3mb 53f 53f
9:00 8 10 mph 1017.3mb 53f 53f
8:54 9 11 mph 1017.2mb 53f 53f
8:36 10 13 mph 1017.2mb 53f 53f
8:30 9 13 mph 1017.2mb 53f 53f
8:24 10 14 mph 1017.1mb 53f 53f
8:18 14 15 mph 1017.1mb 53f 53f
8:12 13 15 mph 1017mb 53f 53f
8:06 13 15 mph 1017mb 53f 53f
8:00 14 16 mph 1017.1mb 53f 53f
7:54 11 13 mph 1017.1mb 53f 53f
7:48 11 16 mph 1017mb 53f 53f
7:36 14 17 mph 1016.9mb 53f 53f
7:30 15 20 mph 1016.9mb 53f 53f
7:24 15 18 mph 1016.9mb 53f 53f
7:18 15 17 mph 1016.9mb 53f 53f
7:12 14 17 mph 1016.8mb 53f 53f
7:06 15 20 mph 1016.8mb 53f 53f
7:00 15 20 mph 1016.8mb 53f 53f
6:54 16 18 mph 1016.8mb 53f 53f
6:48 14 17 mph 1016.7mb 53f 53f
6:36 16 18 mph 1016.7mb 53f 53f
6:30 15 18 mph 1016.8mb 53f 53f
6:24 16 21 mph 1016.8mb 53f 53f
6:18 15 18 mph 1016.9mb 53f 53f
6:12 15 17 mph 1016.9mb 53f 54f
6:06 15 20 mph 1016.9mb 53f 54f
6:00 14 18 mph 1017mb 53f 54f
5:54 15 18 mph 1017.1mb 53f 54f
5:48 14 17 mph 1017.1mb 53f 54f
5:36 15 20 mph 1017.1mb 53f 54f
5:30 16 20 mph 1017.1mb 53f 53f
5:24 16 18 mph 1017.1mb 53f 53f
5:18 16 18 mph 1017.1mb 53f 53f
5:12 16 21 mph 1017.1mb 53f 53f
5:06 17 21 mph 1017.1mb 53f 53f
5:00 18 21 mph 1017.2mb 53f 53f
4:54 18 20 mph 1017.2mb 53f 53f
4:48 16 18 mph 1017.2mb 53f 53f
4:36 16 18 mph 1017.2mb 53f -
4:30 16 18 mph 1017.2mb 53f -
4:24 16 18 mph 1017.3mb 53f -
4:18 16 17 mph 1017.3mb 53f -
4:12 16 17 mph 1017.4mb 53f -
4:06 16 18 mph 1017.4mb 53f -
4:00 16 18 mph 1017.4mb 53f -
3:54 16 18 mph 1017.4mb 53f -
3:48 17 18 mph 1017.5mb 53f -
2:54 18 20 mph 1017.9mb 53f 51f
2:48 16 18 mph 1018mb 53f 51f
1:54 14 16 mph 1018.5mb 53f 52f
1:48 14 15 mph 1018.5mb 53f 51f
1:36 10 14 mph 1018.6mb 53f 51f
1:30 13 14 mph 1018.6mb 53f 51f
1:24 11 14 mph 1018.6mb 53f 51f
1:18 10 13 mph 1018.6mb 53f 51f
1:12 11 14 mph 1018.6mb 53f 51f
1:06 13 14 mph 1018.6mb 53f 51f
1:00 13 14 mph 1018.6mb 52f 51f
12:54 13 15 mph 1018.6mb 52f 51f
12:48 13 15 mph 1018.6mb 52f 51f
12:36 14 15 mph 1018.6mb 52f 51f
12:30 11 14 mph 1018.6mb 52f 51f
12:24 11 13 mph 1018.6mb 52f 51f
12:18 9 11 mph 1018.6mb 52f 50f
12:12 8 11 mph 1018.6mb 52f 51f
12:06 10 13 mph 1018.6mb 52f 51f
12:00 10 11 mph 1018.6mb 52f 51f
11:54 9 10 mph 1018.6mb 52f 51f
11:48 5 9 mph 1018.7mb 52f 52f
11:36 7 10 mph 1018.7mb 52f 51f
11:30 8 11 mph 1018.7mb 52f 51f
11:24 6 9 mph 1018.6mb 52f 51f
11:18 7 11 mph 1018.6mb 52f 51f
11:12 10 11 mph 1018.5mb 52f 51f
11:06 9 14 mph 1018.6mb 52f 51f
11:00 13 15 mph 1018.7mb 52f 51f
10:54 13 15 mph 1018.7mb 52f 51f
10:48 13 15 mph 1018.6mb 52f 51f
10:36 11 13 mph 1018.6mb 52f 51f
10:30 11 14 mph 1018.5mb 52f 51f
10:24 10 13 mph 1018.5mb 52f 51f
10:18 9 11 mph 1018.5mb 52f 51f
10:12 9 13 mph 1018.4mb 52f 51f
10:06 10 11 mph 1018.4mb 52f 51f
10:00 5 8 mph 1018.4mb 52f 51f
9:54 7 10 mph 1018.5mb 52f 51f
9:48 9 10 mph 1018.5mb 52f 51f
9:36 7 10 mph 1018.7mb 52f 51f
9:30 7 11 mph 1018.8mb 52f 51f
9:24 10 11 mph 1018.8mb 52f 51f
9:18 10 11 mph 1018.8mb 52f 51f
9:12 10 13 mph 1018.8mb 52f 51f
9:06 11 13 mph 1018.8mb 52f 51f
9:00 9 11 mph 1018.7mb 52f 51f
8:54 9 11 mph 1018.8mb 52f 51f
8:48 10 13 mph 1018.8mb 52f 51f
8:36 10 11 mph 1018.7mb 52f 51f
8:30 9 11 mph 1018.7mb 52f 51f
8:24 9 10 mph 1018.7mb 52f 51f
8:18 8 10 mph 1018.6mb 52f 51f
8:12 8 10 mph 1018.6mb 52f 51f
8:06 9 11 mph 1018.6mb 52f 51f
8:00 9 10 mph 1018.5mb 52f 51f
7:54 7 10 mph 1018.6mb 52f 51f
7:48 6 10 mph 1018.5mb 52f 51f
7:36 8 9 mph 1018.5mb 52f 51f
7:30 7 8 mph 1018.5mb 52f 51f
7:24 6 7 mph 1018.6mb 52f 51f
7:18 3 5 mph 1018.6mb 52f 51f
7:12 5 7 mph 1018.5mb 52f 51f
7:06 5 6 mph 1018.5mb 52f 51f
7:00 5 6 mph 1018.5mb 52f 51f
6:54 6
mph
1018.5mb 52f 51f
6:48 5 6 mph 1018.5mb 52f 51f
6:36 6 9 mph 1018.5mb 51f 51f
6:30 7 8 mph 1018.5mb 51f 51f
6:24 5 7 mph 1018.5mb 51f 51f
6:18 7 10 mph 1018.5mb 51f 51f
6:12 5 8 mph 1018.4mb 51f 51f
6:06 6 8 mph 1018.4mb 51f 51f
6:00 5 8 mph 1018.4mb 51f 51f
5:54 6 8 mph 1018.3mb 51f 51f
5:48 6 9 mph 1018.3mb 51f 51f
5:36 7 9 mph 1018.2mb 51f 51f
5:30 7 9 mph 1018.2mb 51f 51f
5:24 6 8 mph 1018.1mb 51f 51f
5:18 5 8 mph 1018.1mb 51f 51f
5:12 5 8 mph 1018.1mb 51f 51f
5:06 6 8 mph 1018mb 51f 51f
5:00 7 10 mph 1018mb 51f 51f
4:54 8 9 mph 1017.9mb 51f 51f
4:48 6 9 mph 1017.8mb 51f 51f
4:36 8 9 mph 1017.7mb 51f 51f
4:30 6 8 mph 1017.7mb 51f 51f
4:24 6 8 mph 1017.7mb 51f 51f
4:18 5 6 mph 1017.8mb 51f 51f
4:12 5 7 mph 1017.8mb 51f 51f
4:06 6 8 mph 1017.9mb 51f 51f
4:00 7 9 mph 1017.9mb 51f 51f
3:54 7 9 mph 1017.8mb 51f 51f
3:48 7 8 mph 1017.8mb 51f 51f
3:36 5 6 mph 1017.7mb 51f 51f
3:30 3 5 mph 1017.7mb 51f 51f
3:24 3 6 mph 1017.7mb 51f 51f
3:18 3 5 mph 1017.7mb 51f 51f
3:12 3 5 mph 1017.7mb 51f 51f
3:06 2 3 mph 1017.6mb 51f 51f
3:00 3 7 mph 1017.6mb 51f 51f
2:54 2 6 mph 1017.7mb 51f 51f
2:48 5 8 mph 1017.7mb 51f 51f
2:36  -  mph 1017.7mb - -
2:30  -  mph 1017.6mb - -
2:24  -  mph 1017.5mb - -
2:18  -  mph 1017.5mb - -
2:12  -  mph 1017.5mb - -
2:06  -  mph 1017.6mb - -
2:00  -  mph 1017.5mb - -
1:54  -  mph 1017.5mb - -
1:48  -  mph 1017.5mb - -
1:36 6 9 mph 1017.5mb 51f 51f
1:30 6 11 mph 1017.5mb 51f 51f
1:24 6 9 mph 1017.6mb 51f 51f
1:18 8 11 mph 1017.6mb 51f 51f
1:12 8 9 mph 1017.6mb 51f 51f
1:06 8 11 mph 1017.6mb 51f 51f
1:00 9 10 mph 1017.6mb 51f 51f
12:54 8 11 mph 1017.6mb 51f 51f
12:48 8 10 mph 1017.6mb 51f 51f
12:36 9 11 mph 1017.4mb 51f 51f
12:30 9 11 mph 1017.5mb 51f 51f
12:24 8 11 mph 1017.4mb 51f 51f
12:18 8 10 mph 1017.4mb 51f 51f
12:12 8 10 mph 1017.4mb 51f 51f
12:06 9 11 mph 1017.4mb 51f 51f
12:00 8 13 mph 1017.4mb 51f 51f
Ter 05/26 11:54 9 13 mph 1017.4mb 51f 51f
11:48 9 13 mph 1017.5mb 51f 51f
11:36 11 14 mph 1017.4mb 51f 51f
11:30 10 13 mph 1017.4mb 51f 52f
11:24 8 10 mph 1017.4mb 51f 52f
11:18 8 9 mph 1017.4mb 51f 52f
11:12 6 7 mph 1017.4mb 51f 52f
11:06 5 8 mph 1017.4mb 51f 52f
11:00 6 8 mph 1017.4mb 51f 52f
10:54 6 9 mph 1017.5mb 51f 52f
10:48 7 10 mph 1017.5mb 51f 52f
10:36 7 10 mph 1017.4mb 51f 52f
10:30 8 11 mph 1017.4mb 51f 52f
10:24 9 10 mph 1017.4mb 51f 52f
10:18 8 9 mph 1017.4mb 51f 52f
10:12 7 8 mph 1017.3mb 51f 52f
10:06 6 7 mph 1017.3mb 51f 52f
10:00 6 8 mph 1017.2mb 52f 52f
9:54 6 9 mph 1017.1mb 52f 52f
9:48 8 9 mph 1017.1mb 52f 53f
9:36 3 6 mph 1017mb 52f 53f
9:30 5 7 mph 1016.9mb 52f 53f
9:24 6 7 mph 1016.8mb 52f 53f
9:18 6 7 mph 1016.8mb 52f 53f
9:12 6 9 mph 1016.8mb 52f 53f
9:06 8
mph
1016.8mb 52f 53f
9:00 8 9 mph 1016.8mb 52f 52f
8:54 9 11 mph 1016.9mb 52f 52f
8:48 9 13 mph 1016.9mb 52f 52f
8:36 16 20 mph 1016.9mb 52f 52f
8:30 14 16 mph 1016.8mb 52f 53f
8:24 13 17 mph 1016.8mb 52f 53f
8:18 13 17 mph 1016.9mb 52f 53f
8:12 10 14 mph 1016.9mb 52f 53f
8:06 10 15 mph 1017mb 52f 53f
8:00 15 17 mph 1016.9mb 52f 53f
7:54 13 17 mph 1016.9mb 52f 53f
7:48 15 18 mph 1016.8mb 52f 53f
7:36 14 16 mph 1016.8mb 52f 54f
7:30 13 18 mph 1016.7mb 52f 54f
7:24 16 18 mph 1016.7mb 52f 54f
7:18 16 18 mph 1016.6mb 52f 53f
7:12 15 18 mph 1016.6mb 52f 53f
7:06 17 21 mph 1016.5mb 52f 53f
7:00 15 17 mph 1016.5mb 52f 54f
6:54 15 18 mph 1016.5mb 52f 53f
6:48 13 16 mph 1016.5mb 52f 53f
6:36 13 15 mph 1016.5mb 52f 53f
6:30 13 16 mph 1016.5mb 52f 53f
6:24 14 21 mph 1016.5mb 52f 53f
6:18 14 18 mph 1016.5mb 52f 54f
6:12 14 18 mph 1016.6mb 52f 54f
6:06 16 18 mph 1016.7mb 52f 54f
6:00 14 16 mph 1016.8mb 52f 55f
5:36 16 17 mph 1017mb 52f 54f
5:30 16 17 mph 1017mb 52f 54f
5:24 13 15 mph 1017.1mb 52f 55f
5:18 14 17 mph 1017.2mb 52f 54f
5:12 16 21 mph 1017.2mb 52f 53f
5:06 17 22 mph 1017.3mb 52f 53f
5:00 16 21 mph 1017.3mb 52f 53f
4:54 17 22 mph 1017.3mb 52f 53f
4:48 17 22 mph 1017.4mb 52f 53f
4:36 14 20 mph 1017.4mb 52f 54f
4:30 15 18 mph 1017.4mb 52f 54f
4:24 14 22 mph 1017.4mb 52f 53f
4:18 16 22 mph 1017.5mb 52f 53f
4:12 17 21 mph 1017.5mb 52f 53f
4:06 16 21 mph 1017.5mb 52f 53f
4:00 15 20 mph 1017.5mb 52f 53f
3:54 16 20 mph 1017.5mb 52f 53f
3:48 16 18 mph 1017.5mb 52f 53f
3:36 15 17 mph 1017.5mb 52f 54f
3:30 15 16 mph 1017.5mb 52f 55f
3:24 14 16 mph 1017.6mb 52f 54f
3:18 14 18 mph 1017.6mb 52f 54f
3:12 16 18 mph 1017.6mb 52f 54f
3:06 14 16 mph 1017.6mb 52f 54f
3:00 14 16 mph 1017.7mb 52f 54f
2:54 13 15 mph 1017.7mb 52f 54f
2:48 11 15 mph 1017.8mb 52f 54f
2:36 10 13 mph 1017.7mb 52f 55f
2:30 14 15 mph 1017.7mb 52f 55f
2:24 13 14 mph 1017.7mb 52f 55f
2:18 10 15 mph 1017.7mb 52f 54f
2:12 14 16 mph 1017.8mb 52f 54f
2:06 13 15 mph 1017.8mb 52f 54f
2:00 14 17 mph 1017.9mb 52f 54f
1:54 14 16 mph 1017.9mb 52f 54f
1:48 14 16 mph 1017.9mb 52f 54f
1:36 14 15 mph 1017.9mb 52f 54f
1:30 13 14 mph 1017.9mb 52f 54f
1:24 11 14 mph 1018mb 52f 54f
1:18 13 15 mph 1017.9mb 52f 53f
1:12 14 15 mph 1017.9mb 52f 54f
1:06 14 15 mph 1018mb 52f 54f
1:00 13 14 mph 1018mb 52f 54f
12:54 11 14 mph 1018mb 52f 54f
12:48 11 14 mph 1018.2mb 52f 54f
12:36 11 16 mph 1018.2mb 52f 53f
12:30 15 16 mph 1018.2mb 52f 53f
12:24 14 16 mph 1018.2mb 52f 53f
12:18 14 16 mph 1018.2mb 52f 53f
12:12 15 16 mph 1018.2mb 52f 53f
12:06 14 16 mph 1018.1mb 52f 53f
12:00 15 16 mph 1018.2mb 52f 53f
11:54 14 16 mph 1018.2mb 52f 53f
11:48 13 15 mph 1018.2mb 52f 53f
9:36 11 14 mph 1018mb 52f 53f
9:30 11 14 mph 1017.9mb 52f 53f
9:24 11 14 mph 1017.9mb 52f 53f
9:18 11 14 mph 1017.9mb 52f 53f
9:12 11 14 mph 1017.9mb 52f 53f
9:06 9 11 mph 1017.9mb 52f 53f
9:00 10 13 mph 1017.9mb 52f 53f
8:54 9 11 mph 1017.9mb 52f 53f
8:48 8 9 mph 1018mb 52f 53f
8:36 8 9 mph 1017.9mb 52f 53f
8:30 7 8 mph 1017.9mb 52f 53f
8:24 8 9 mph 1017.8mb 52f 53f
8:18 7 8 mph 1017.8mb 52f 53f
8:12 6 8 mph 1017.8mb 52f 53f
8:06 7
mph
1017.8mb 52f 53f
8:00 6 7 mph 1017.8mb 52f 52f
7:54 5 7 mph 1017.9mb 52f 52f
7:48 3 5 mph 1017.9mb 52f 52f
7:36 6 9 mph 1017.8mb 52f 52f
7:30 7 9 mph 1017.8mb 52f 52f